| time (UTC) | temp F | wind direction | speed MPH | gust MPH | rain 1hr in | rain 24hr in | rain mn in | humidity % | barometer mb |
| 20260507010054 | 46 | 0 | 0.0 | 0.0 | 0.00 | 0.35 | 0.35 | 76 | 1012.0 |
| 20260507004553 | 46 | 0 | 0.0 | 0.0 | 0.00 | 0.35 | 0.35 | 76 | 1011.8 |
| 20260507003050 | 46 | 0 | 0.0 | 0.0 | 0.00 | 0.35 | 0.35 | 76 | 1011.6 |
| 20260507001557 | 47 | 0 | 0.0 | 1.0 | 0.00 | 0.35 | 0.35 | 75 | 1011.3 |
| 20260507000053 | 47 | 0 | 0.0 | 1.0 | 0.00 | 0.35 | 0.35 | 75 | 1011.1 |
| 20260506234548 | 47 | 0 | 0.0 | 1.0 | 0.00 | 0.35 | 0.35 | 74 | 1011.0 |
| 20260506233114 | 47 | 0 | 0.0 | 0.0 | 0.00 | 0.35 | 0.35 | 75 | 1010.9 |
| 20260506231552 | 47 | 58 | 0.0 | 3.0 | 0.00 | 0.35 | 0.35 | 74 | 1010.7 |
| 20260506230052 | 47 | 0 | 0.0 | 6.0 | 0.00 | 0.35 | 0.35 | 74 | 1010.8 |
| 20260506224554 | 47 | 20 | 1.0 | 7.0 | 0.00 | 0.35 | 0.35 | 74 | 1010.7 |
| 20260506223048 | 47 | 0 | 1.0 | 3.0 | 0.00 | 0.35 | 0.35 | 75 | 1010.6 |
| 20260506221552 | 47 | 23 | 0.0 | 7.0 | 0.00 | 0.35 | 0.35 | 75 | 1010.4 |
| 20260506220056 | 47 | 51 | 2.0 | 7.0 | 0.00 | 0.35 | 0.35 | 75 | 1010.1 |
| 20260506214553 | 47 | 0 | 1.0 | 5.0 | 0.00 | 0.35 | 0.35 | 75 | 1010.0 |
| 20260506213110 | 47 | 77 | 0.0 | 4.0 | 0.01 | 0.35 | 0.35 | 75 | 1009.7 |
| 20260506211552 | 47 | 59 | 1.0 | 6.0 | 0.03 | 0.35 | 0.35 | 76 | 1009.5 |
| 20260506210056 | 47 | 24 | 2.0 | 6.0 | 0.03 | 0.35 | 0.35 | 76 | 1009.3 |
| 20260506204554 | 47 | 20 | 1.0 | 8.0 | 0.03 | 0.35 | 0.35 | 76 | 1008.9 |
| 20260506203052 | 48 | 58 | 1.0 | 10.0 | 0.03 | 0.34 | 0.34 | 77 | 1008.9 |
| 20260506201549 | 48 | 0 | 3.0 | 6.0 | 0.02 | 0.32 | 0.32 | 76 | 1008.5 |
| 20260506200047 | 48 | 30 | 1.0 | 8.0 | 0.04 | 0.32 | 0.32 | 76 | 1008.2 |
| 20260506194614 | 48 | 47 | 1.0 | 8.0 | 0.04 | 0.32 | 0.32 | 76 | 1008.2 |
| 20260506193057 | 49 | 356 | 2.0 | 10.0 | 0.03 | 0.31 | 0.31 | 76 | 1008.0 |
| 20260506191553 | 49 | 60 | 3.0 | 13.0 | 0.02 | 0.30 | 0.30 | 75 | 1007.7 |
| 20260506184550 | 58 | 269 | 4.0 | 12.0 | 0.00 | 0.28 | 0.28 | 71 | 1007.0 |
| 20260506183050 | 59 | 94 | 3.0 | 13.0 | 0.00 | 0.28 | 0.28 | 73 | 1006.6 |
| 20260506181552 | 59 | 343 | 3.0 | 9.0 | 0.00 | 0.28 | 0.28 | 74 | 1006.8 |
| 20260506180059 | 59 | 301 | 4.0 | 12.0 | 0.00 | 0.28 | 0.28 | 74 | 1006.8 |
| 20260506174550 | 59 | 313 | 5.0 | 9.0 | 0.00 | 0.28 | 0.28 | 75 | 1006.7 |
| 20260506173056 | 59 | 318 | 3.0 | 10.0 | 0.00 | 0.28 | 0.28 | 76 | 1006.6 |
| 20260506171558 | 59 | 82 | 0.0 | 3.0 | 0.01 | 0.28 | 0.28 | 77 | 1006.7 |
| 20260506164551 | 58 | 44 | 0.0 | 5.0 | 0.01 | 0.28 | 0.28 | 78 | 1006.8 |
| 20260506163110 | 58 | 254 | 1.0 | 5.0 | 0.01 | 0.28 | 0.28 | 77 | 1006.8 |
| 20260506161549 | 57 | 300 | 2.0 | 7.0 | 0.01 | 0.27 | 0.27 | 77 | 1007.0 |
| 20260506160050 | 57 | 0 | 0.0 | 2.0 | 0.02 | 0.27 | 0.27 | 77 | 1006.9 |
| 20260506154608 | 57 | 285 | 0.0 | 2.0 | 0.02 | 0.27 | 0.27 | 78 | 1007.1 |
| 20260506153054 | 57 | 0 | 0.0 | 7.0 | 0.03 | 0.27 | 0.27 | 78 | 1006.9 |
| 20260506151552 | 57 | 0 | 1.0 | 4.0 | 0.03 | 0.26 | 0.26 | 78 | 1007.1 |
| 20260506150049 | 57 | 44 | 0.0 | 2.0 | 0.02 | 0.25 | 0.25 | 78 | 1007.0 |
| 20260506144549 | 57 | 0 | 2.0 | 5.0 | 0.02 | 0.25 | 0.25 | 77 | 1006.9 |
| 20260506143104 | 57 | 162 | 1.0 | 8.0 | 0.01 | 0.24 | 0.24 | 77 | 1006.9 |
| 20260506141547 | 57 | 0 | 1.0 | 5.0 | 0.01 | 0.23 | 0.23 | 77 | 1007.0 |
| 20260506140047 | 57 | 49 | 2.0 | 6.0 | 0.04 | 0.23 | 0.23 | 78 | 1006.9 |
| 20260506134551 | 56 | 0 | 1.0 | 5.0 | 0.07 | 0.23 | 0.23 | 78 | 1006.8 |
| 20260506133049 | 56 | 105 | 1.0 | 4.0 | 0.10 | 0.23 | 0.23 | 78 | 1006.7 |
| 20260506131548 | 55 | 89 | 0.0 | 3.0 | 0.10 | 0.22 | 0.22 | 78 | 1007.1 |
| 20260506130047 | 55 | 0 | 0.0 | 3.0 | 0.09 | 0.19 | 0.19 | 78 | 1007.8 |
| 20260506124546 | 55 | 0 | 1.0 | 4.0 | 0.07 | 0.16 | 0.16 | 78 | 1007.8 |
| 20260506123051 | 54 | 0 | 0.0 | 1.0 | 0.05 | 0.13 | 0.13 | 78 | 1007.9 |
| 20260506121549 | 55 | 0 | 0.0 | 0.0 | 0.05 | 0.12 | 0.12 | 78 | 1007.8 |
| 20260506120058 | 55 | 0 | 0.0 | 1.0 | 0.04 | 0.10 | 0.10 | 78 | 1007.5 |
| 20260506114559 | 54 | 0 | 0.0 | 2.0 | 0.03 | 0.09 | 0.09 | 78 | 1007.6 |
| 20260506113053 | 54 | 0 | 0.0 | 0.0 | 0.03 | 0.08 | 0.08 | 78 | 1007.7 |
| 20260506111551 | 54 | 0 | 0.0 | 0.0 | 0.02 | 0.07 | 0.07 | 78 | 1007.7 |
| 20260506110058 | 54 | 0 | 0.0 | 0.0 | 0.03 | 0.06 | 0.06 | 77 | 1007.6 |
| 20260506104550 | 53 | 0 | 0.0 | 0.0 | 0.03 | 0.06 | 0.06 | 77 | 1007.7 |
| 20260506103048 | 53 | 0 | 0.0 | 0.0 | 0.03 | 0.05 | 0.05 | 77 | 1007.7 |
| 20260506101546 | 53 | 0 | 0.0 | 0.0 | 0.03 | 0.05 | 0.05 | 76 | 1007.7 |
| 20260506100051 | 53 | 0 | 0.0 | 0.0 | 0.02 | 0.03 | 0.03 | 76 | 1007.4 |
| 20260506094607 | 53 | 0 | 0.0 | 0.0 | 0.02 | 0.03 | 0.03 | 75 | 1007.3 |
| 20260506093055 | 53 | 0 | 0.0 | 0.0 | 0.02 | 0.02 | 0.02 | 74 | 1007.2 |
| 20260506091549 | 54 | 0 | 0.0 | 0.0 | 0.02 | 0.02 | 0.02 | 72 | 1007.4 |
| 20260506090049 | 54 | 0 | 0.0 | 0.0 | 0.01 | 0.01 | 0.01 | 70 | 1007.3 |
| 20260506084554 | 54 | 0 | 0.0 | 0.0 | 0.01 | 0.01 | 0.01 | 68 | 1007.4 |
| 20260506083103 | 54 | 0 | 0.0 | 0.0 | 0.00 | 0.00 | 0.00 | 67 | 1007.9 |
| 20260506081555 | 54 | 0 | 0.0 | 0.0 | 0.00 | 0.00 | 0.00 | 67 | 1008.1 |
| 20260506073048 | 55 | 0 | 0.0 | 0.0 | 0.00 | 0.00 | 0.00 | 66 | 1007.4 |
| 20260506071546 | 55 | 0 | 0.0 | 0.0 | 0.00 | 0.00 | 0.00 | 66 | 1007.4 |
| 20260506061551 | 56 | 0 | 0.0 | 0.0 | 0.00 | 0.00 | 0.00 | 65 | 1008.1 |
| 20260506044552 | 57 | 0 | 0.0 | 1.0 | 0.00 | 0.00 | 0.00 | 67 | 1009.1 |
| 20260506043053 | 58 | 0 | 0.0 | 0.0 | 0.00 | 0.00 | 0.00 | 66 | 1009.0 |
| 20260506041551 | 59 | 0 | 0.0 | 3.0 | 0.00 | 0.00 | 0.00 | 65 | 1009.0 |
| 20260506040101 | 60 | 0 | 0.0 | 6.0 | 0.00 | 0.00 | 0.00 | 64 | 1009.2 |
| 20260506034558 | 60 | 0 | 0.0 | 3.0 | 0.00 | 0.00 | 0.00 | 63 | 1009.2 |
| 20260506033054 | 59 | 57 | 1.0 | 5.0 | 0.00 | 0.00 | 0.00 | 60 | 1009.2 |
| 20260506031558 | 60 | 0 | 0.0 | 1.0 | 0.00 | 0.00 | 0.00 | 56 | 1008.9 |
| 20260506030052 | 61 | 0 | 0.0 | 1.0 | 0.00 | 0.00 | 0.00 | 54 | 1008.6 |
| 20260506024546 | 62 | 65 | 1.0 | 1.0 | 0.00 | 0.00 | 0.00 | 51 | 1008.6 |
| 20260506023048 | 64 | 0 | 0.0 | 0.0 | 0.00 | 0.00 | 0.00 | 48 | 1008.7 |
| 20260506021556 | 66 | 0 | 0.0 | 4.0 | 0.00 | 0.00 | 0.00 | 45 | 1008.6 |
| 20260506020047 | 66 | 0 | 0.0 | 2.0 | 0.00 | 0.00 | 0.00 | 45 | 1008.6 |
| 20260506014548 | 67 | 0 | 0.0 | 2.0 | 0.00 | 0.00 | 0.00 | 43 | 1008.3 |
| 20260506013047 | 67 | 58 | 0.0 | 3.0 | 0.00 | 0.00 | 0.00 | 43 | 1008.5 |
| 20260506011553 | 67 | 0 | 0.0 | 0.0 | 0.00 | 0.00 | 0.00 | 43 | 1008.3 |